{"data":{"norad_id":67684,"epoch":"2026-05-25T03:04:31.823904Z","epoch_age_seconds":57745,"freshness":"FRESH","line1":"1 67684U 98067YA  26145.12814611  .00130769  00000+0  11132-2 0  9998","line2":"2 67684  51.6259  46.3144 0013096 121.3622 238.8658 15.68546210 16734","mean_motion":15.6854621,"eccentricity":0.0013096,"inclination_deg":51.6259,"raan_deg":46.3144,"arg_perigee_deg":121.3622,"mean_anomaly_deg":238.8658,"bstar":0.0011132,"rev_number":1673,"period_min":91.804754671525,"perigee_km":354.2308604246,"apogee_km":371.8874013306,"semimajor_km":6741.1961308776,"source":"CELESTRAK","updated_at":"2026-05-25T13:38:08.449592Z"}}